User: anonymous   Login
Location: Unspecified
(0.0000°N, 0.0000°E)
Time: 18:41:28
(UTC+00:00)
Language:

KORONAS-FOTON - Orbit

View from above orbital plane
View from above orbital plane
View from above satellite
View from above satellite

Ground track
Ground track

The orbit data is extracted from the following two-line orbital elements,

1 33504U 09003A   14355.20962704  .00006909  00000-0  40016-3 0  2042
2 33504 082.4429 054.8682 0020569 011.8090 040.6251 15.11878420323968
Epoch (UTC): 21 December 2014 05:01:51
Eccentricity: 0.0020569
inclination: 82.4429°
perigee height: 516 km
apogee height: 544 km
right ascension of ascending node: 54.8682°
argument of perigee: 11.8090°
revolutions per day: 15.11878420
mean anomaly at epoch: 40.6251°
orbit number at epoch: 32396

The dashed part of the orbit path shows where the satellite is in the earth's shadow,  

DLR